www.pogodaiklimat.ru

Погода и климат >> Архив погоды >> Индонезия >> Маноквари


ПОГОДА в Маноквари

  • Прогноз погоды в Маноквари
  • Монитор погоды в Маноквари

АРХИВ ПОГОДЫ в Маноквари

Время (UTC), дата Ветер
(напр.,м/с)
 
Видим.   Явления Облачность Т
(С)
Тd
(С)
f
(%)
Тe
(С)
Тes
(С)
Комфортность P
(гПа)
Po
(гПа)
Тmin
(С)
Tmax
(С)
R
(мм)
R24
(мм)
S
(см)
15 18.08 штиль 0 8000 м 1/1 450 м
[Cu hum]
+25.5 +23.3 88 +34 +34 очень
душно
1009.7 1009.3
18 18.08 штиль 0 8000 м 4/1 450 м
[Cu hum Ac und Ci fib]
+24.7 +23.2 91 +33 +33 очень
душно
1008.6 1008.2
21 18.08 штиль 0 10 км 4/1 450 м
[Cu hum Ac lent Ci fib]
+24.9 +23.2 90 +33 +33 очень
душно
1008.9 1008.5
00 19.08 штиль 0 9000 м слаб. дождь 9/4 420 м
[Cu Sc Ac As Ci sp]
+26.6 +25.0 91 +38 +43 очень
душно
1010.1 1009.7 +24.5 0.0
03 19.08 СВ 2 9000 м {дождь} 9/4 420 м
[Cu Sc As op Ci sp]
+28.5 +25.0 81 +41 +49 опасность
перегрева
1008.9 1008.6 0.2
06 19.08 СЗ 3 9000 м 10/4 420 м
[Cu Sc Ac cuf Ci sp]
+28.9 +24.8 79 +41 +44 опасность
перегрева
1006.6 1006.3 0.2
09 19.08 СЗ 2 9000 м 8/3 420 м
[Cu hum Ac lent Ci sp]
+29.3 +24.4 75 +41 +41 опасность
перегрева
1007.4 1007.0
12 19.08 штиль 0 7000 м 8/4 420 м
[Cu med, cong Ac lent Ci sp]
+26.5 +24.0 86 +37 +37 очень
душно
1009.4 1009.0 +29.7
15 19.08 штиль 0 7000 м 8/4 420 м
[Cu med, cong Ac lent Ci sp]
+25.7 +24.0 90 +35 +35 очень
душно
1009.8 1009.4
18 19.08 Ю 3 7000 м 8/4 420 м
[Cu med, cong Ac lent Ci sp]
+26.1 +23.3 85 +35 +35 очень
душно
1008.3 1007.9
21 19.08 СЗ 3 7000 м {дождь} 10/5 420 м
[Cu Sc Ac As Ci sp]
+24.9 +23.5 92 +34 +34 очень
душно
1009.3 1008.9 2
00 20.08 СЗ 5 7000 м слаб. дождь 10/5 420 м
[Cu Sc Ac As]
+26.0 +23.5 86 +35 +36 очень
душно
1011.6 1011.2 +24.8 0.0
03 20.08 СЗ 3 10 км {дождь} 9/4 420 м
[Cu Sc Ac As Ci sp]
+26.3 +23.5 85 +36 +42 очень
душно
1009.3 1008.9 1
06 20.08 СЗ 3 9000 м {дождь} 10/5 420 м
[Cu Sc Ac cuf Cs]
+27.1 +23.8 82 +37 +40 очень
душно
1008.2 1007.8 2
09 20.08 ЮВ 2 10 км 9/4 420 м
[Cu Sc Ac und Ci]
+27.9 +23.5 77 +38 +38 очень
душно
1007.7 1007.3
12 20.08 ЮВ 3 5000 м 5/3 420 м
[Cu hum Ac trans Ci fib]
+27.2 +24.1 83 +38 +38 очень
душно
1009.2 1008.8 +28.8
15 20.08 В 2 4000 м 6/5 420 м
[Cu med, cong Ac trans Ci fib]
+28.0 +24.4 81 +39 +39 очень
душно
1009.3 1009.0
18 20.08 штиль 0 4000 м 6/5 420 м
[Cu hum Ac trans Ci fib]
+25.4 +22.8 86 +34 +34 очень
душно
1007.8 1007.4
21 20.08 штиль 0 8000 м 6/4 420 м
[Cu hum Ac trans Ci fib]
+23.9 +21.9 89 +31 +31 очень
душно
1008.1 1007.8
00 21.08 штиль 0 10 км 5/1 420 м
[Cu hum Ac trans Ci sp]
+27.4 +22.5 75 +36 +46 очень
душно
1009.5 1009.1 +23.6 3
03 21.08 ЮВ 6 10 км 5/3 420 м
[Cu hum As trans Ci fib]
+31.1 +24.3 67 +43 +49 опасность
перегрева
1007.4 1007.0
06 21.08 штиль 0 10 км 5/3 420 м
[Cu hum Ac trans Ci fib]
+31.5 +24.8 68 +45 +54 опасность
перегрева
1006.6 1006.3
09 21.08 ЮВ 2 10 км 5/3 420 м
[Cu hum Ac trans Ci fib]
+30.0 +24.3 72 +42 +42 опасность
перегрева
1008.1 1007.7
12 21.08 штиль 0 6000 м 8/3 420 м
[Cu med, cong Ac und Ci ing]
+28.4 +24.0 77 +39 +39 очень
душно
1010.1 1009.7 +33.2
15 21.08 штиль 0 6000 м 8/3 420 м
[Cu med, cong Ac und Ci]
+27.1 +24.1 84 +38 +38 очень
душно
1009.9 1009.5
18 21.08 штиль 0 6000 м 8/4 420 м
[Cu Sc Ac und Ci]
+26.1 +24.0 88 +36 +36 очень
душно
1008.7 1008.3
21 21.08 штиль 0 10 км 8/4 420 м
[Cu Sc Ac und Ci]
+25.5 +23.4 88 +34 +34 очень
душно
1010.0 1009.7
00 22.08 штиль 0 10 км 9/3 420 м
[Cu med, cong Ac trans Ci sp]
+29.2 +23.1 70 +39 +45 очень
душно
1012.1 1011.8 +25.4
03 22.08 В 4 5000 м слаб. дождь 9/6 420 м
[Cu Sc Ac As Ci sp]
+29.4 +24.5 75 +42 +45 опасность
перегрева
1010.5 1010.1 2
06 22.08 С 2 8000 м {дождь} 9/6 420 м
[Cu Sc Ac As Ci sp]
+28.1 +24.7 82 +40 +43 очень
душно
1008.6 1008.2 0.1
12 22.08 В 4 6000 м 9/4 420 м
[Cu med, cong Ac lent Ci fib]
+28.5 +24.4 79 +40 +40 очень
душно
1011.1 1010.7 +30.1
15 22.08 С 2 6000 м 9/4 420 м
[Cu med, cong Ac lent Ci sp]
+27.9 +24.4 81 +39 +39 очень
душно
1011.4 1011.0
18 22.08 штиль 0 6000 м 9/4 420 м
[Cu med, cong Ac trans Ci sp]
+26.2 +23.9 87 +36 +36 очень
душно
1010.3 1009.9
21 22.08 штиль 0 10 км 8/3 420 м
[Cu hum As trans Ci fib]
+25.3 +23.7 91 +34 +34 очень
душно
1010.8 1010.4
00 23.08 СЗ 2 10 км 9/4 420 м
[Cu hum Ac lent Ci sp]
+27.7 +24.9 85 +40 +44 очень
душно
1012.4 1012.1 +25.2 2
03 23.08 СЗ 4 8000 м {дождь} 9/4 420 м
[Cu hum Ac lent Ci sp]
+29.8 +24.7 74 +42 +47 опасность
перегрева
1011.1 1010.7 0.2
06 23.08 ЮВ 3 8000 м 3/3 450 м
[Cu med, cong Ci fib]
+30.2 +24.2 70 +42 +49 опасность
перегрева
1008.0 1007.6
09 23.08 штиль 0 8000 м 3/3 450 м
[Cu hum Ci fib]
+29.5 +24.7 75 +42 +42 опасность
перегрева
1008.9 1008.6
12 23.08 З 2 7000 м 4/3 420 м
[Cu hum Ac lent Ci fib]
+27.0 +24.2 85 +38 +38 очень
душно
1011.4 1011.0 +30.4
15 23.08 СВ 2 7000 м 5/3 420 м
[Cu hum Ac lent Ci fib]
+26.5 +23.4 83 +36 +36 очень
душно
1010.5 1010.1
18 23.08 штиль 0 7000 м 5/3 420 м
[Cu hum Ac lent Ci fib]
+25.2 +22.7 86 +33 +33 очень
душно
1009.5 1009.2
21 23.08 В 2 10 км 9/4 420 м
[Cu hum Ac trans Ci sp]
+24.9 +22.7 88 +33 +33 очень
душно
1010.2 1009.8
00 24.08 штиль 0 5000 м слаб. дождь 9/4 420 м
[Cu med, cong Ac As Ci ing]
+25.6 +23.6 89 +35 +40 очень
душно
1010.9 1010.5 +24.7 0.8
03 24.08 С 3 10 км {дождь} 8/3 420 м
[Cu hum Ac trans Ci sp]
+30.3 +23.9 69 +42 +51 опасность
перегрева
1009.1 1008.7 0.0
06 24.08 С 5 8000 м {дождь} 8/4 420 м
[Cu med, cong Ac As Ci sp]
+30.9 +24.7 70 +44 +46 опасность
перегрева
1007.4 1007.0 0.0
09 24.08 ЮЗ 3 6000 м 8/4 420 м
[Cu med, cong Ac As Ci sp]
+28.7 +24.6 79 +41 +41 опасность
перегрева
1008.9 1008.5
12 24.08 СЗ 2 8000 м 9/5 420 м
[Cu Sc Ac As Cs]
+25.5 +23.6 89 +35 +35 очень
душно
1010.2 1009.8 +31.8
15 24.08 СЗ 2 8000 м слаб. дождь 10/6 420 м
[Cu Sc Ac As Cs]
+25.3 +24.1 93 +35 +35 очень
душно
1009.6 1009.3 0.9
18 24.08 штиль 0 8000 м {дождь} 10/3 450 м
[Cu hum As op Cs]
+25.2 +24.0 93 +35 +35 очень
душно
1007.8 1007.5 0.9
21 24.08 штиль 0 10 км 10/3 420 м
[Cu hum As op Cs]
+25.2 +24.4 95 +35 +35 очень
душно
1008.7 1008.4
00 25.08 В 2 10 км 8/3 420 м
[Cu hum Ac trans Ci fib]
+28.8 +24.7 79 +41 +46 опасность
перегрева
1009.9 1009.5 +25.2 2
03 25.08 В 4 10 км 6/4 420 м
[Cu med, cong Ac lent Ci sp]
+31.0 +24.6 69 +44 +52 опасность
перегрева
1007.9 1007.6
06 25.08 СВ 2 10 км 6/4 420 м
[Cu med, cong Ac lent Ci ing]
+31.7 +24.5 66 +44 +50 опасность
перегрева
1006.3 1005.9
09 25.08 В 2 9000 м 9/4 420 м
[Cu Sc Ac und Ci]
+29.6 +24.2 73 +41 +41 опасность
перегрева
1007.8 1007.5
12 25.08 штиль 0 5000 м {дождь} 9/5 420 м
[Cu Sc Ac lent Ci sp]
+27.4 +23.8 81 +38 +38 очень
душно
1009.7 1009.3 +31.8 0.0

 

Местоположение метеостанции Маноквари (Индонезия): широта -0.88 долгота 134.05 высота над уровнем моря 3 м.

В архиве по умолчанию представлена погода в Маноквари за последнюю неделю. Архивные данные за месяц целиком и за предыдущие месяцы, начиная с января 2011 года, Вы можете получить, выбрав интересующий диапазон дат из раскрывающегося списка и нажав кнопку "Ввод!".


*Определитесь, кто Вы:
робот инопланетянин человек

Внимание! Время в таблицах - всемирное. Для получения местного времени необходимо прибавить поправку, которая равна 9 ч.

Смотрите также архив погоды в соседних городах и на ближайших метеорологических станциях:

Погода в Биаке (Индонезия) (232 км)
Погода в Серуи (Индонезия) (266 км)
Погода в Факфаке (Индонезия) (302 км)
Погода в Каимана (Индонезия) (312 км)
Погода в Набире (Индонезия) (317 км)
Погода в Аэропорту Соронг-Джефман (Индонезия) (327 км)
Погода в Энаротали (Индонезия) (425 км)
Погода в Гесере (Индонезия) (483 км)
Погода в Сарми (Индонезия) (529 км)
Погода в Туале (Индонезия) (553 км)

Пояснения к столбцам:

Ветер - указаны скорость ветра в м/с - средняя за 10 мин, порывы в срок и между сроками (в фигурных скобках) и направление, откуда дует ветер: С - северный, СВ - северо-восточный, В - восточный, ЮВ - юго-восточный, Ю - южный, ЮЗ - юго-западный, З - западный, СЗ - северо-западный.
Видимость - горизонтальная дальность видимости в метрах или километрах. При видимости от 1 до 10 км при отсутствии осадков обычно наблюдается дымка, при ухудшении видимости до 1 км и менее - туман. В сухую погоду видимость может ухудшаться дымом, пылью или мглою.
Явления - указаны атмосферные явления, наблюдавшиеся в срок или в последний час перед сроком; фигурными скобками обозначены явления, наблюдавшиеся между сроками (за 1-3 часа до срока); квадратными скобками обозначены град или гололедные отложения с указанием их диаметра в мм.
Облачность - указаны через наклонную черту общая и нижняя облачность в баллах и высота нижней границы облаков в метрах; квадратными скобками обозначены формы облаков: Ci - перистые, Cs - перисто-слоистые, Cc - перисто-кучевые, Ac - высококучевые, As - высокослоистые, Sc - слоисто-кучевые, Ns - слоисто-дождевые, Cu - кучевые, Cb - кучево-дождевые. Подробнее классификацию облаков см. в Атласе облаков (PDF).
T - Температура воздуха - температура, измеренная на высоте 2 м над землей.
Td - Температура точки росы - температура, при понижении до которой содержащийся в воздухе водяной пар достигнет насыщения.
f - Относительная влажность воздуха - влажноcть воздуха, измеренная на высоте 2 м над землей.
Te - Эффективная температура - температура, которую ощущает одетый по сезону человек в тени. Характеристика душности погоды. При расчете учитывается влияние влажности воздуха и скорости ветра на теплоощущения человека.
Tes - Эффективная температура на солнце - температура, которую ощущает человек, с поправкой на солнечный нагрев. Характеристика знойности погоды. Зависит от высоты солнца над горизонтом, облачности и скорости ветра. Ночью, в пасмурную погоду, а также при ветре 12 м/с и более поправка равна нулю.
P - Атмосферное давление - приведенное к уровню моря атмосферное давление.
Po - Атмосферное давление - измеренное на уровне метеостанции атмосферное давление.
Tmin - Минимальная температура - минимум температуры воздуха на высоте 2 м над землей.
Tmax - Максимальная температура - максимум температуры воздуха на высоте 2 м над землей.
R - Количество осадков - Количество выпавших осадков за период времени, мм. При наведении курсора мыши на число - период времени, за который выпало указанное количество осадков.
R24 - Количество осадков - Количество выпавших осадков за 24 часа, мм.
S - Снежный покров - Высота снежного покрова, см. При наведении курсора мыши на число - состояние снежного покрова и степень покрытия местности в баллах.